Cosmos 1733 Rocket - Orbit

View from above orbital plane
View from above orbital plane
View from above satellite
View from above satellite

Ground track
Ground track

The orbit data is extracted from the following two-line orbital elements,

1 16612U 86018B   13143.83527994  .00000423  00000-0  48772-4 0  6008
2 16612 082.5185 249.2123 0017903 018.1450 128.9697 14.83221986371196
Epoch (UTC): 23 May 2013 20:02:48
Eccentricity: 0.0017903
inclination: 82.5185°
perigee height: 606 km
apogee height: 632 km
right ascension of ascending node: 249.2123°
argument of perigee: 18.1450°
revolutions per day: 14.83221986
mean anomaly at epoch: 128.9697°
orbit number at epoch: 37119

The dashed part of the orbit path shows where the satellite is in the earth's shadow,  

Developed and maintained by Chris Peat, Heavens-Above GmbH. Please read the updated FAQ before sending e-mail. Imprint. DLR